Theta_e
302 302 303 303 304 304 304 304 305 305 305 305 305 305 306 307 304 305 305 305 305 306 305 305 304 304 305 304 304 304 304 305 306 307 307 308 308 308 309 310 311 312
302 302 302 303 303 303 304 304 304 305 305 305 306 305 305 304 303 305 304 304 304 305 304 304 304 304 304 304 304 305 305 306 306 307 307 308 309 310 310 310 310 311
302 302 302 302 302 301 302 303 304 304 304 304 304 304 304 303 303 303 304 304 303 303 303 303 303 303 304 304 305 305 306 306 307 307 308 310 311 312 312 312 312 311
301 302 302 302 301 300 302 302 302 303 303 302 303 303 304 302 302 302 302 301 303 302 302 302 303 303 304 305 305 306 307 309 310 311 311 311 311 312 312 312 311 312
301 301 301 301 301 300 300 301 302 302 303 303 302 301 301 300 301 301 301 301 302 302 302 302 302 303 305 308 309 310 310 310 311 311 310 310 311 311 311 311 310 310
301 302 301 301 300 300 300 301 302 302 302 300 301 300 300 300 301 301 301 301 301 302 302 301 303 306 308 309 309 310 310 310 310 310 309 309 309 310 310 310 310 309
300 301 301 301 300 300 300 301 301 300 301 301 298 299 299 300 301 301 302 302 302 302 303 305 307 308 308 308 308 308 309 309 309 309 308 308 308 308 309 309 309 309
301 301 301 300 299 299 300 300 300 300 300 298 299 299 299 300 301 301 301 302 302 303 306 307 308 308 308 307 307 307 307 308 307 307 307 307 307 307 308 309 309 308
300 300 300 299 299 299 299 299 299 299 298 299 299 298 298 300 300 301 302 303 304 305 307 307 308 308 308 307 308 308 307 306 307 307 307 306 306 306 307 308 308 307
298 298 298 299 299 299 299 299 299 298 297 299 298 298 298 298 300 301 302 303 304 306 307 308 308 308 307 308 308 308 307 307 306 306 307 307 307 306 306 306 307 307
297 296 297 297 298 298 298 298 297 297 296 298 297 297 298 298 299 301 302 303 305 306 307 308 308 307 307 307 308 307 307 307 306 306 306 307 307 307 303 306 306 307
296 295 296 297 298 297 297 297 296 296 296 296 297 298 297 298 300 301 302 304 305 307 308 308 308 307 307 307 307 306 306 307 306 306 306 306 307 307 306 306 307 307
295 296 297 297 297 297 296 295 295 294 295 296 296 298 297 298 300 302 303 304 305 307 308 308 308 307 307 306 306 305 306 306 306 306 306 306 306 306 306 306 307 307
295 296 296 297 296 295 294 294 294 293 295 295 294 296 297 298 299 301 301 301 304 306 307 308 308 307 306 306 306 306 306 306 306 305 305 305 305 305 306 306 306 306
294 294 294 293 292 293 293 293 293 293 293 293 294 295 296 297 298 299 299 301 302 304 305 306 307 307 307 305 305 306 307 306 306 305 305 305 304 304 305 305 305 305
292 291 291 291 291 292 292 292 292 291 291 291 293 294 294 294 295 297 299 302 303 302 302 304 305 307 302 299 300 305 306 307 306 305 304 304 303 302 302 303 304 305
290 290 290 290 291 292 290 290 291 290 290 291 291 292 294 293 294 298 300 301 302 301 300 301 303 304 298 299 300 301 305 306 305 304 304 303 302 301 301 301 301 302
289 289 289 290 289 290 290 289 289 288 289 290 291 292 293 292 293 298 299 300 300 300 300 300 299 297 298 299 299 299 299 304 305 304 303 303 301 301 301 301 301 300
289 289 289 289 289 290 289 288 288 289 289 289 291 292 292 293 296 297 298 298 299 299 299 299 295 296 297 298 298 298 298 300 304 304 303 302 301 301 301 300 299 299
289 289 289 289 288 288 288 288 288 289 289 289 289 290 293 295 294 295 296 296 297 298 297 294 295 295 296 296 296 297 297 300 304 303 302 301 301 300 300 299 299 299
289 289 289 288 287 288 288 288 289 288 288 288 289 291 293 294 294 295 295 295 294 295 294 294 295 294 295 295 296 296 297 298 303 302 301 300 300 300 300 299 299 299
289 289 288 287 287 287 288 288 288 288 288 287 288 289 290 291 292 294 294 294 294 293 293 293 292 293 294 295 295 296 297 299 301 301 300 299 298 295 297 297 298 298
289 289 288 287 287 287 288 288 288 287 286 286 287 288 289 290 292 292 293 293 292 293 293 294 292 291 293 294 294 296 296 299 299 299 299 298 298 295 296 294 296 296
288 289 288 288 287 288 288 288 288 287 287 287 288 287 288 289 290 291 291 292 292 292 293 294 294 291 292 293 294 294 295 298 298 298 294 294 293 292 293 295 295 291
288 288 289 288 288 289 289 288 287 288 287 286 287 286 286 287 289 289 289 290 291 291 289 292 293 290 291 293 293 294 295 298 297 296 294 292 291 291 290 290 291 290
287 288 288 288 288 289 288 288 288 286 285 286 285 285 285 286 287 288 288 288 289 290 290 291 292 291 290 292 293 293 295 296 296 295 294 292 291 291 290 289 289 290
Wind_Speed
13 12 12 12 12 11 12 12 11 12 11 10 11 10 11 10 7 9 8 8 8 8 8 7 6 6 6 6 5 5 6 6 7 6 6 7 8 9 10 11 11 10
15 13 11 11 10 9 10 11 12 12 12 11 10 9 9 8 8 9 9 8 8 8 7 6 6 6 6 6 5 6 5 6 7 4 6 8 9 9 12 12 12 11
13 13 13 14 13 12 12 11 11 11 11 11 9 9 9 8 9 8 8 8 8 7 6 6 6 5 5 5 5 5 6 6 7 5 6 9 9 10 11 11 10 12
13 14 13 13 11 12 11 10 9 9 8 9 10 10 9 8 9 8 7 7 7 6 6 5 5 5 5 5 5 5 6 7 7 7 8 9 10 10 10 9 10 10
14 13 11 11 10 10 10 11 12 10 11 11 9 8 8 8 8 8 7 7 7 6 6 6 4 4 4 4 6 7 7 8 7 8 9 10 8 8 9 8 8 10
11 12 12 12 11 11 11 12 12 11 11 9 11 9 8 8 8 8 8 8 6 6 5 4 3 4 5 7 7 8 7 7 7 7 8 8 7 6 6 6 7 8
12 11 12 11 11 11 12 11 10 10 10 10 7 9 8 8 8 8 8 7 6 6 5 5 6 6 6 7 8 8 8 8 7 8 8 7 6 6 6 7 7 8
12 11 12 11 12 12 12 11 10 10 10 8 10 8 9 9 9 7 7 7 7 6 5 6 7 8 8 8 8 8 8 7 7 7 7 7 6 8 8 8 8 9
11 11 11 11 13 11 11 11 10 10 9 10 9 8 7 8 8 8 8 7 6 5 6 7 8 9 8 8 8 8 8 7 7 7 6 6 7 8 8 7 8 8
10 9 11 11 13 11 12 11 10 9 8 9 8 7 8 6 7 8 7 7 6 7 8 8 8 8 8 8 9 8 7 7 7 6 6 7 7 7 6 6 7 7
10 9 10 11 12 10 12 10 9 9 8 9 8 8 8 7 6 7 8 7 8 8 8 9 8 8 8 8 8 7 7 6 6 6 6 7 7 7 6 7 7 7
10 9 11 12 12 11 11 10 9 8 9 7 9 9 7 7 8 7 8 8 8 8 8 8 7 8 8 8 8 7 7 6 6 6 7 7 7 7 6 6 6 6
10 11 11 11 11 10 8 8 9 8 9 9 8 9 9 8 8 8 7 7 7 7 8 7 7 8 8 8 8 7 7 7 7 6 6 6 6 7 6 6 6 6
11 11 11 11 9 7 8 8 7 7 8 7 7 8 9 9 9 9 7 6 7 7 7 6 7 7 7 8 8 8 7 7 7 7 7 6 6 6 6 6 7 6
9 8 7 7 7 7 7 8 8 8 7 7 8 7 7 8 7 7 7 7 6 6 6 6 7 7 7 7 7 7 7 8 7 7 7 7 6 6 6 6 6 7
7 6 7 6 7 8 8 8 8 8 7 7 8 7 7 6 6 6 6 7 8 6 5 6 6 6 8 12 11 8 8 7 6 7 7 7 7 6 5 6 6 6
7 7 7 8 8 8 7 8 8 7 7 8 7 7 7 6 6 7 7 7 7 6 6 6 6 6 10 11 12 12 9 7 7 6 6 6 6 6 6 6 5 5
7 7 8 8 8 9 8 8 7 7 8 8 7 7 7 6 7 8 7 7 7 6 6 5 5 7 11 11 11 12 10 6 6 6 6 6 6 6 6 6 6 5
7 8 9 8 9 9 8 7 8 8 8 8 9 8 6 8 8 7 8 7 6 7 6 6 5 8 11 11 11 11 11 9 5 6 6 6 6 7 6 6 5 5
8 9 9 9 8 7 7 8 8 10 8 7 6 6 8 8 7 8 7 8 7 7 6 5 6 7 10 11 11 11 12 10 5 7 6 6 6 7 6 6 7 7
8 9 9 8 7 7 8 8 9 7 7 7 8 10 10 10 10 9 8 7 7 6 6 6 6 8 9 9 9 11 11 10 5 6 5 5 6 6 7 7 7 7
9 9 8 7 8 8 9 9 8 9 10 8 7 6 5 5 5 6 8 8 7 6 6 6 5 8 9 9 9 9 10 7 5 6 6 5 5 5 5 6 6 7
9 10 10 9 9 10 10 10 9 9 6 6 8 7 8 8 9 9 8 8 8 8 8 7 6 7 9 9 9 9 8 5 5 5 5 6 5 5 6 5 6 6
10 10 10 10 10 12 12 10 9 6 8 8 10 10 10 9 7 6 7 7 8 9 9 9 7 7 10 9 10 10 9 6 5 5 4 5 4 4 4 5 6 11
10 9 10 10 11 11 11 10 10 10 8 7 7 7 7 6 6 7 6 6 6 7 8 9 7 7 9 10 11 11 9 5 6 5 5 5 4 4 3 4 4 6
7 9 8 9 11 10 9 10 8 6 8 9 7 6 6 6 6 6 8 7 5 6 7 7 7 6 7 10 10 12 12 7 6 7 7 6 5 6 5 3 3 4
Wind_Direction
193 190 189 190 191 188 183 185 186 183 187 188 186 191 188 195 174 180 189 189 195 200 204 204 197 200 203 200 199 198 207 216 222 221 215 215 223 223 226 226 226 227
194 189 188 188 188 187 187 183 181 183 185 186 189 182 187 173 184 179 186 191 194 202 197 195 192 195 195 194 191 195 211 213 231 211 220 228 234 231 234 231 230 230
188 186 186 189 188 183 180 182 181 184 181 186 181 179 180 178 175 183 182 186 190 195 188 185 184 189 192 195 192 203 214 223 235 225 226 240 241 239 240 235 232 229
191 188 187 187 181 180 179 175 179 179 175 174 185 184 174 174 168 173 177 180 184 184 181 174 185 187 191 199 202 218 226 233 238 237 243 246 242 240 239 231 231 231
186 186 186 184 180 176 173 176 179 180 179 182 175 171 166 163 167 169 172 179 179 179 173 182 185 200 201 222 226 237 234 236 232 225 230 233 232 227 231 228 228 230
187 185 182 181 177 172 177 180 180 177 177 172 180 170 172 167 169 171 174 176 180 174 174 180 204 221 219 227 223 227 225 224 218 215 224 229 229 219 220 221 224 227
181 180 181 178 174 177 177 181 175 174 177 177 156 174 165 168 172 175 175 177 174 176 179 191 216 224 216 220 220 221 218 214 213 208 215 219 221 226 222 223 227 233
178 180 179 178 176 177 180 177 174 176 172 157 172 174 168 170 174 172 173 175 178 180 187 207 217 224 217 211 211 208 207 205 207 203 206 217 209 225 224 223 224 227
177 180 176 175 175 177 179 177 176 175 168 169 173 168 174 171 172 172 175 176 176 183 202 215 218 218 209 202 201 197 199 201 203 199 204 208 214 223 222 217 218 219
177 174 172 175 178 179 180 179 174 173 171 171 170 162 170 176 170 172 173 177 179 194 210 220 217 210 202 199 197 194 196 198 193 195 200 207 213 217 216 213 217 216
174 172 174 178 180 178 182 176 173 168 171 170 160 169 174 165 177 174 175 176 187 200 212 215 211 202 197 197 196 190 193 193 189 188 197 206 210 213 207 208 216 217
176 174 181 182 182 182 181 175 170 169 171 171 167 171 170 176 176 183 180 182 190 203 212 210 203 197 195 194 194 190 187 187 185 190 199 203 207 210 205 202 211 213
179 183 183 185 186 183 174 169 172 172 168 173 175 170 172 177 182 181 180 182 193 204 212 205 201 197 195 192 192 190 185 184 187 195 203 206 209 207 205 202 206 211
185 184 186 187 182 173 171 173 170 170 177 171 165 173 178 179 180 178 171 176 196 207 208 201 198 198 195 191 189 188 185 188 189 194 202 206 205 205 203 203 203 205
184 186 179 172 167 164 168 173 175 177 172 167 175 180 178 178 173 167 166 182 203 206 204 201 198 198 191 184 185 187 187 189 191 193 196 200 201 201 200 202 204 204
178 172 169 163 164 172 178 177 175 174 170 171 180 178 171 166 165 169 172 187 203 208 203 199 199 197 196 185 180 180 185 192 190 190 192 193 194 194 197 201 207 207
169 174 164 172 179 177 175 175 176 169 171 176 176 169 168 168 165 171 182 189 206 209 199 199 196 193 201 193 186 181 180 185 186 190 190 190 187 183 189 193 206 210
175 169 173 179 175 183 179 179 167 166 174 176 167 168 171 160 174 182 180 189 201 211 211 196 194 196 193 202 194 189 182 178 187 190 191 191 182 181 186 186 188 187
174 175 180 180 185 182 177 165 168 174 174 169 178 175 156 172 186 176 183 187 198 199 212 214 207 201 195 198 200 191 186 176 182 186 189 199 183 182 182 182 176 170
176 179 185 188 182 175 168 171 173 185 182 172 154 154 173 183 180 184 181 189 197 198 204 204 211 220 203 198 198 192 187 183 177 183 190 194 188 182 181 177 176 171
179 184 188 181 174 170 172 179 184 178 172 170 169 176 179 184 185 185 188 186 195 195 197 211 215 218 218 207 199 194 188 183 176 180 183 195 192 184 179 179 180 177
183 187 185 173 171 172 178 185 186 181 180 176 169 173 180 173 189 187 186 189 189 189 192 208 227 215 207 213 204 198 184 181 177 175 182 189 190 187 184 179 176 176
190 185 183 177 175 176 186 188 185 187 182 160 164 174 178 190 193 191 188 183 187 192 196 206 212 211 204 206 207 195 175 185 176 176 179 183 190 189 188 177 172 174
191 188 184 181 178 186 189 192 189 180 176 172 177 175 188 194 183 184 190 192 189 194 196 196 208 202 197 201 202 189 178 179 179 174 181 182 189 184 179 183 183 175
189 190 189 183 187 194 189 183 183 184 179 172 180 176 181 160 170 184 191 198 202 198 195 196 201 207 200 198 194 185 180 179 172 173 176 186 169 175 179 181 187 181
191 188 192 192 196 195 188 189 177 156 162 173 179 171 165 169 175 185 193 201 193 201 203 201 193 202 204 202 195 187 181 171 172 168 184 182 179 170 164 190 189 188